OK1PMP-6 Weather Reports


time (UTC)temp
F
wind
direction
speed
knots
gust
knots
rain 1hr
in
rain 24hr
in
rain mn
in
humidity
%
barometer
mb
20260507034430 52 235 1.7 6.1 0.00 0.49 0.07 96 1011.4
20260507032930 52 194 0.9 7.0 0.00 0.49 0.07 96 1011.5
20260507031430 53 212 2.6 6.1 0.00 0.49 0.07 97 1011.2
20260507025931 53 204 3.5 5.2 0.00 0.49 0.07 97 1011.1
20260507024354 53 252 0.9 1.7 0.00 0.49 0.07 98 1011.0
20260507022833 53 253 0.0 1.7 0.00 0.49 0.07 98 1011.0
20260507020915 53 253 0.0 0.0 0.00 0.49 0.07 98 1011.1
20260507015413 53 253 0.0 0.0 0.00 0.49 0.07 97 1010.9
20260507013705 53 253 0.0 0.0 0.00 0.49 0.07 97 1011.2
20260507012203 53 253 0.0 1.7 0.00 0.49 0.07 97 1011.1
20260507010626 53 253 0.0 0.0 0.00 0.49 0.07 97 1011.0
20260507005124 53 253 0.0 0.0 0.00 0.49 0.07 97 1011.0
20260507003614 53 253 0.0 0.9 0.00 0.48 0.07 96 1010.5
20260507002115 53 253 0.0 2.6 0.00 0.48 0.07 97 1010.9
20260507000603 53 253 0.0 3.5 0.00 0.48 0.07 97 1010.6
20260506235100 53 358 0.0 1.7 0.00 0.49 0.07 97 1010.1
20260506233559 53 358 0.0 2.6 0.02 0.50 0.07 97 1009.4
20260506232054 53 46 0.0 1.7 0.04 0.50 0.07 97 1009.2
20260506230555 53 53 0.0 6.1 0.06 0.50 0.07 97 1009.2
20260506225057 53 293 0.9 7.8 0.08 0.50 0.07 97 1008.8
20260506223555 54 110 0.9 2.6 0.08 0.48 0.04 96 1009.3
20260506222054 54 202 0.9 7.0 0.11 0.46 0.04 97 1010.5
20260506220542 54 187 2.6 7.8 0.09 0.44 0.01 97 1011.0
20260506215043 55 254 1.7 6.1 0.08 0.42 0.42 96 1010.4
20260506213540 55 181 1.7 6.1 0.11 0.39 0.40 96 1010.5
20260506212049 54 257 2.6 7.8 0.11 0.36 0.36 96 1010.0
20260506210543 54 250 3.5 3.5 0.15 0.35 0.35 96 1009.2
20260506205046 54 78 1.7 3.5 0.17 0.34 0.34 95 1008.4
20260506203549 54 91 0.9 3.5 0.11 0.28 0.28 96 1008.9
20260506202045 55 11 0.0 3.5 0.08 0.25 0.25 95 1009.0
20260506200533 55 179 1.7 6.1 0.03 0.20 0.20 94 1009.4
20260506195036 55 249 0.0 2.6 0.00 0.17 0.17 93 1008.6
20260506193538 55 313 0.0 1.7 0.00 0.17 0.17 93 1008.2
20260506192039 55 264 0.9 1.7 0.00 0.17 0.17 92 1008.1
20260506190553 55 127 0.0 3.5 0.00 0.17 0.17 93 1007.6
20260506185016 55 317 0.0 1.7 0.00 0.17 0.17 91 1008.0
20260506183525 55 173 0.0 5.2 0.00 0.17 0.17 91 1007.1
20260506182001 55 44 1.7 6.1 0.00 0.19 0.17 92 1007.5
20260506180501 55 134 2.6 6.1 0.03 0.20 0.17 92 1007.5
20260506175018 55 50 0.9 7.8 0.08 0.21 0.17 90 1007.6
20260506173500 55 91 6.1 7.8 0.12 0.23 0.17 89 1008.0
20260506172102 55 31 1.7 6.1 0.13 0.25 0.17 90 1008.2
20260506170457 56 83 1.7 2.6 0.12 0.22 0.15 85 1009.2
20260506165021 57 253 0.9 5.2 0.07 0.18 0.10 84 1009.3
20260506163440 58 89 0.0 1.7 0.03 0.14 0.05 81 1008.6
20260506161936 61 84 0.0 3.5 0.02 0.13 0.04 67 1007.9
20260506160437 65 76 0.0 7.8 0.00 0.11 0.02 55 1007.8
20260506154937 67 107 0.0 1.7 0.00 0.11 0.02 54 1007.9
20260506153438 68 348 0.0 5.2 0.00 0.11 0.02 54 1007.6
20260506151937 69 312 1.7 5.2 0.00 0.11 0.02 55 1007.6
20260506150411 69 322 0.9 2.6 0.00 0.11 0.02 52 1007.8
20260506144903 70 350 0.0 3.5 0.00 0.11 0.02 50 1008.0
20260506143402 71 169 0.0 1.7 0.00 0.11 0.02 48 1008.3
20260506141901 73 255 0.0 1.7 0.00 0.11 0.02 47 1008.5
20260506140402 73 267 1.7 2.6 0.00 0.11 0.02 46 1008.5
20260506134903 74 228 0.9 6.1 0.00 0.11 0.02 47 1008.7
20260506133408 75 54 1.7 5.2 0.00 0.11 0.02 46 1008.8
20260506131902 75 116 1.7 6.1 0.00 0.11 0.02 46 1008.9
20260506130353 75 54 2.6 6.1 0.00 0.11 0.02 47 1009.1
20260506124859 74 217 1.7 7.0 0.00 0.11 0.02 48 1009.4
20260506123352 74 284 0.0 5.2 0.00 0.11 0.02 47 1009.5
20260506121852 73 215 0.9 12.2 0.00 0.11 0.02 51 1010.1
20260506120354 71 258 1.7 7.0 0.00 0.11 0.02 53 1010.2
20260506114848 69 270 1.7 7.0 0.00 0.11 0.02 54 1010.2
20260506113349 72 282 1.7 8.7 0.00 0.11 0.02 52 1010.2
20260506111848 70 300 3.5 9.6 0.00 0.11 0.02 53 1010.0
20260506110348 70 259 0.0 11.3 0.00 0.11 0.02 54 1010.5
20260506104848 70 277 4.3 8.7 0.00 0.11 0.02 56 1010.4
20260506103349 68 240 4.3 7.8 0.00 0.11 0.02 59 1010.3
20260506101853 67 217 3.5 8.7 0.00 0.11 0.02 61 1010.5
20260506100348 68 210 2.6 7.8 0.00 0.11 0.02 61 1010.5
20260506094848 66 273 0.0 7.8 0.00 0.11 0.02 63 1010.3
20260506093348 68 248 3.5 13.0 0.00 0.11 0.02 62 1010.5
20260506091848 64 208 6.1 11.3 0.00 0.11 0.02 66 1010.7
20260506090349 65 252 2.6 9.6 0.00 0.11 0.02 66 1010.4
20260506084848 64 302 0.0 8.7 0.00 0.11 0.02 67 1010.4
20260506083352 64 279 1.7 12.2 0.00 0.11 0.02 70 1010.3
20260506081849 64 258 3.5 9.6 0.00 0.11 0.02 71 1010.4
20260506080411 63 187 3.5 8.7 0.00 0.11 0.02 72 1010.4
20260506073348 61 248 5.2 7.8 0.00 0.11 0.02 77 1010.2
20260506071848 61 298 3.5 9.6 0.00 0.11 0.02 75 1010.3
20260506070349 61 278 2.6 11.3 0.00 0.11 0.02 79 1010.1
20260506061851 56 211 0.0 7.0 0.00 0.11 0.02 87 1010.0
20260506060351 56 225 1.7 3.5 0.00 0.11 0.02 88 1010.3
20260506050409 52 136 0.0 1.7 0.00 0.11 0.02 98 1010.1
20260506044851 51 188 0.9 0.9 0.00 0.11 0.02 96 1010.0
20260506043348 51 189 0.0 0.9 0.00 0.11 0.02 96 1010.0
20260506041847 51 189 0.0 0.0 0.00 0.11 0.02 96 1009.6
20260506040348 51 189 0.0 0.0 0.00 0.11 0.02 95 1009.5